(19937) = 2000 XA20 = 1981 EF15

Discovered at Siding Spring on 1981-03-01 by S. J. Bus.

Orbit

Orbit type: Main Belt

Note: WebGL enabled browser required.

epoch2024-03-31.0
epoch JD2460400.5
perihelion date2020-06-10.01110
perihelion JD2459010.51110
argument of perihelion (°)319.86886
ascending node (°)325.67759
inclination (°)9.01195
eccentricity0.0686690
perihelion distance (AU)2.8640247
Tisserand w.r.t. Jupiter3.2
ΔV w.r.t. Earth (km/sec)10.9
semimajor axis (AU)3.0751952
mean anomaly (°)254.04237
mean daily motion (°/day)0.18276580
aphelion distance (AU)3.286
period (years)5.39
P-vector [x]0.27250564
P-vector [y]-0.83772590
P-vector [z]-0.47323989
Q-vector [x]0.95809184
Q-vector [y]0.19111265
Q-vector [z]0.21339160
absolute magnitude14.67
phase slope0.15
uncertainty0
referenceMPEC 2024-F14
observations used1262
oppositions26
arc length (days)17457
first opposition used1976
last opposition used2024
residual rms (arc-secs)0.69
perturbers coarse indicatorM-v
perturbers precise indicator003Ek
first observation date used1976-05-31.0
last observation date used2024-03-17.0
computer nameMPCLINUX
JD of orbit computation2456847.618881
perihelion JD uncertainty (days)2.5320E-04
argument of perihelion uncertainty (°)5.5775E-05
ascending node uncertainty (°)3.1374E-05
inclination uncertainty (°)5.6021E-06
eccentricity uncertainty 4.1795E-08
perihelion distance uncertainty (AU)1.3232E-07
Minimum Orbit Intersection Distances (in AU)
for orbit epoch: 2460400.5, reference: E2024-G95
Mercury2.40558
Venus2.13836
Earth1.85468
Mars1.42623
Jupiter1.927
Saturn5.80244
Uranus15.2438
Neptune26.7096

Observations

1280 total observations over interval: 1976 05 31.45312 – 2024 03 17.463158
These data are available for download (format description).

Date (UT) J2000 RA J2000 Dec Magn Location Ref
1976 05 31.45312 13 47 51.98 -24 34 01.9   260 – Siding Spring Observatory-DSS MPS 23438
1976 05 31.49478 13 47 50.96 -24 33 51.8   260 – Siding Spring Observatory-DSS MPS 23438
1976 06 24.41598 13 45 51.45 -23 11 07.4   260 – Siding Spring Observatory-DSS MPS 23438
1976 06 24.45765 13 45 51.87 -23 11 02.0   260 – Siding Spring Observatory-DSS MPS 23438
1977 07 20.63652 21 28 05.88 -18 46 02.5   260 – Siding Spring Observatory-DSS MPS 23438
1977 07 20.69208 21 28 03.33 -18 46 05.3   260 – Siding Spring Observatory-DSS MPS 23438
1981 03 01.63816 12 25 56.97 -10 40 35.5 19.5 V 413 – Siding Spring Observatory MPC 7549
1981 03 06.66426 12 22 37.94 -10 37 33.2   413 – Siding Spring Observatory MPC 7549
1981 03 06.70593 12 22 36.11 -10 37 30.2   413 – Siding Spring Observatory MPC 7549
1981 03 08.68165 12 21 11.72 -10 35 17.9   413 – Siding Spring Observatory MPC 7549
1981 03 08.72332 12 21 09.97 -10 35 15.5   413 – Siding Spring Observatory MPC 7549
1981 03 12.58070 12 18 17.20 -10 29 32.1   413 – Siding Spring Observatory MPC 7549
1981 03 12.67049 12 18 13.15 -10 29 23.5   413 – Siding Spring Observatory MPC 8234
1981 04 09.55619 11 56 01.29 -09 06 41.6   413 – Siding Spring Observatory MPC 7549
1981 04 09.59091 11 55 59.96 -09 06 34.5   413 – Siding Spring Observatory MPC 7549
1981 05 01.49549 11 44 16.27 -07 55 17.7   413 – Siding Spring Observatory MPC 10250
1981 05 03.39307 11 43 42.19 -07 50 32.5   413 – Siding Spring Observatory MPC 10250
1988 10 09.40059 21 49 40.21 -09 55 56.3   260 – Siding Spring Observatory-DSS MPS 23438
1988 10 09.45961 21 49 39.73 -09 55 52.3   260 – Siding Spring Observatory-DSS MPS 23438
1991 02 07.16404 08 28 56.46 +23 15 14.9 20.8 V 691 – Steward Observatory, Kitt Peak-Spacewatch MPS 79008
1991 02 07.19555 08 28 54.81 +23 15 16.1 20.8 V 691 – Steward Observatory, Kitt Peak-Spacewatch MPS 79008
1991 02 07.22010 08 28 53.45 +23 15 16.6 20.7 V 691 – Steward Observatory, Kitt Peak-Spacewatch MPS 79008
1992 05 24.47754 12 39 42.94 -16 03 10.1   260 – Siding Spring Observatory-DSS MPS 23438
1997 02 04.54076 11 36 49.60 -01 28 25.6 19.3 R 566 – Haleakala-NEAT/GEODSS MPS 23438
1997 02 04.55117 11 36 49.28 -01 28 24.9 19.6 R 566 – Haleakala-NEAT/GEODSS MPS 23438
1999 09 07.34368 23 11 59.06 +00 08 56.8 18.8   704 – Lincoln Laboratory ETS, New Mexico MPS 22032
1999 09 07.35550 23 11 58.45 +00 08 54.9 18.8   704 – Lincoln Laboratory ETS, New Mexico MPS 22032
1999 09 07.36732 23 11 57.83 +00 08 53.3 19.5   704 – Lincoln Laboratory ETS, New Mexico MPS 22032
1999 09 07.37929 23 11 57.34 +00 08 50.9 19.2   704 – Lincoln Laboratory ETS, New Mexico MPS 22032
1999 09 07.39087 23 11 56.69 +00 08 49.8 19.0   704 – Lincoln Laboratory ETS, New Mexico MPS 22032
2000 11 06.26530 04 40 55.69 +34 39 42.9 18.8   704 – Lincoln Laboratory ETS, New Mexico MPS 23082
2000 11 06.27961 04 40 55.04 +34 39 43.9 19.6   704 – Lincoln Laboratory ETS, New Mexico MPS 23082
2000 11 06.29435 04 40 54.41 +34 39 43.1 19.4   704 – Lincoln Laboratory ETS, New Mexico MPS 23082
2000 11 19.32107 04 29 51.58 +34 36 00.2 19.0   704 – Lincoln Laboratory ETS, New Mexico MPS 23082
2000 11 19.33902 04 29 50.56 +34 35 57.3 19.4   704 – Lincoln Laboratory ETS, New Mexico MPS 23082
2000 11 19.36955 04 29 48.82 +34 35 55.9 19.5   704 – Lincoln Laboratory ETS, New Mexico MPS 23082
2000 11 19.38462 04 29 47.92 +34 35 54.1 20.0   704 – Lincoln Laboratory ETS, New Mexico MPS 23082
2000 12 04.21681 04 15 28.64 +34 03 14.9 19.0   704 – Lincoln Laboratory ETS, New Mexico MPS 23082
2000 12 04.21749 04 15 28.52 +34 03 16.0 18.6   704 – Lincoln Laboratory ETS, New Mexico MPS 23082
2000 12 04.23162 04 15 27.68 +34 03 13.4 19.5   704 – Lincoln Laboratory ETS, New Mexico MPS 23082
2000 12 04.23230 04 15 27.78 +34 03 12.3 19.4   704 – Lincoln Laboratory ETS, New Mexico MPS 23082
2000 12 04.24644 04 15 26.89 +34 03 09.8 19.3   704 – Lincoln Laboratory ETS, New Mexico MPS 23082
2000 12 04.24711 04 15 26.85 +34 03 09.2 19.2   704 – Lincoln Laboratory ETS, New Mexico MPS 23082
2000 12 04.26126 04 15 25.87 +34 03 06.4 19.3   704 – Lincoln Laboratory ETS, New Mexico MPS 23082
2000 12 04.26194 04 15 25.98 +34 03 06.5 19.4   704 – Lincoln Laboratory ETS, New Mexico MPS 23082
2000 12 06.23146 04 13 33.94 +33 56 41.7 18.1   704 – Lincoln Laboratory ETS, New Mexico MPS 23082
2000 12 06.24660 04 13 33.13 +33 56 38.9 18.7   704 – Lincoln Laboratory ETS, New Mexico MPS 23082
2000 12 06.26189 04 13 32.23 +33 56 36.4 18.9   704 – Lincoln Laboratory ETS, New Mexico MPS 23082
2000 12 06.27707 04 13 31.29 +33 56 33.7 18.5   704 – Lincoln Laboratory ETS, New Mexico MPS 23082
2000 12 19.22283 04 02 25.99 +33 05 37.2 18.9   704 – Lincoln Laboratory ETS, New Mexico MPS 23438
2000 12 19.23970 04 02 25.15 +33 05 32.7 18.9   704 – Lincoln Laboratory ETS, New Mexico MPS 23438
2000 12 19.25516 04 02 24.46 +33 05 28.4 19.1   704 – Lincoln Laboratory ETS, New Mexico MPS 23438
2000 12 19.27064 04 02 23.68 +33 05 24.0 19.4   704 – Lincoln Laboratory ETS, New Mexico MPS 23438
2000 12 19.28607 04 02 22.99 +33 05 19.7 18.9   704 – Lincoln Laboratory ETS, New Mexico MPS 23438
2002 01 14.39003 09 49 56.72 +15 31 09.5 19.5   704 – Lincoln Laboratory ETS, New Mexico MPS 48182
2002 01 14.40521 09 49 56.21 +15 31 10.5 20.1   704 – Lincoln Laboratory ETS, New Mexico MPS 48182
2002 01 14.42042 09 49 55.59 +15 31 11.4 19.7   704 – Lincoln Laboratory ETS, New Mexico MPS 48182
2002 01 14.43572 09 49 55.07 +15 31 13.0 19.7   704 – Lincoln Laboratory ETS, New Mexico MPS 48182
2002 01 14.45150 09 49 54.47 +15 31 15.0 19.8   704 – Lincoln Laboratory ETS, New Mexico MPS 48182
2002 01 20.49360 09 45 55.18 +15 40 33.2 20.0 V 291 – LPL/Spacewatch II MPS 48182
2002 01 20.51506 09 45 54.25 +15 40 35.4 20.0 V 291 – LPL/Spacewatch II MPS 48182
2002 01 20.53552 09 45 53.34 +15 40 37.4 19.9 V 291 – LPL/Spacewatch II MPS 48182
2002 01 21.33258 09 45 19.35 +15 41 58.8 19.5   704 – Lincoln Laboratory ETS, New Mexico MPS 48182
2002 01 21.34755 09 45 18.70 +15 42 00.6 19.7   704 – Lincoln Laboratory ETS, New Mexico MPS 48182
2002 01 21.36285 09 45 17.96 +15 42 02.7 19.2   704 – Lincoln Laboratory ETS, New Mexico MPS 48182
2002 02 07.31575 09 31 26.73 +16 14 24.5 18.9   704 – Lincoln Laboratory ETS, New Mexico MPS 50931
2002 02 07.33018 09 31 25.97 +16 14 25.8 19.5   704 – Lincoln Laboratory ETS, New Mexico MPS 50931
2002 02 07.34458 09 31 25.14 +16 14 28.5 19.9   704 – Lincoln Laboratory ETS, New Mexico MPS 50931
2002 02 07.35900 09 31 24.41 +16 14 29.5 19.1   704 – Lincoln Laboratory ETS, New Mexico MPS 50931
2002 02 07.37359 09 31 23.59 +16 14 31.7 19.5   704 – Lincoln Laboratory ETS, New Mexico MPS 50931
2002 02 09.19770 09 29 47.89 +16 17 59.3 19.4 V 691 – Steward Observatory, Kitt Peak-Spacewatch MPS 50931
2002 02 09.21942 09 29 46.73 +16 18 01.9 19.5 V 691 – Steward Observatory, Kitt Peak-Spacewatch MPS 50931
2002 02 09.24124 09 29 45.54 +16 18 04.4 19.6 V 691 – Steward Observatory, Kitt Peak-Spacewatch MPS 50931
2002 02 10.24244 09 28 52.75 +16 19 56.2 18.4   704 – Lincoln Laboratory ETS, New Mexico MPS 50931
2002 02 10.25658 09 28 51.98 +16 19 57.7 18.9   704 – Lincoln Laboratory ETS, New Mexico MPS 50931
2002 02 10.27363 09 28 51.07 +16 19 59.8 19.1   704 – Lincoln Laboratory ETS, New Mexico MPS 50931
2002 02 10.28933 09 28 50.22 +16 20 01.4 18.7   704 – Lincoln Laboratory ETS, New Mexico MPS 50931
2002 02 10.30392 09 28 49.43 +16 20 03.0 19.0   704 – Lincoln Laboratory ETS, New Mexico MPS 50931
2002 02 12.30417 09 27 04.22 +16 23 41.6 18.7   704 – Lincoln Laboratory ETS, New Mexico MPS 53654
2002 02 12.31830 09 27 03.43 +16 23 43.2 19.2   704 – Lincoln Laboratory ETS, New Mexico MPS 53654
2002 02 12.33244 09 27 02.68 +16 23 45.1 19.1   704 – Lincoln Laboratory ETS, New Mexico MPS 53654
2002 02 12.34659 09 27 01.88 +16 23 46.4 19.1   704 – Lincoln Laboratory ETS, New Mexico MPS 53654
2002 02 12.36077 09 27 01.14 +16 23 47.7 19.1   704 – Lincoln Laboratory ETS, New Mexico MPS 53654
2002 02 13.23818 09 26 15.33 +16 25 22.2 19.3   704 – Lincoln Laboratory ETS, New Mexico MPS 53654
2002 02 13.26775 09 26 13.79 +16 25 24.2 19.5   704 – Lincoln Laboratory ETS, New Mexico MPS 53654
